DateTimeUTC,F1_A11,F1_S11,BsB_S11,BsG_S11,BsR_S11,BbsB_S11,BbsG_S11,BbsR_S11,BaB_A11,BaG_A11,BaR_A11,Tu_S11,T_S11,Uu_S11,U_S11,P_S11,T1_A11
2021-07-10T07:00:00Z,00000200,21000000,,,,,,,-000.31,-000.07,0000.03,17.6,24.8,01.2,00.8,0674.8,31.0
2021-07-10T07:01:00Z,00000200,21000000,,,,,,,0000.15,-000.07,0000.04,17.6,24.8,01.2,00.8,0674.8,31.0
2021-07-10T07:02:00Z,00000200,21000000,,,,,,,0000.01,-000.16,-000.15,17.5,24.8,01.2,00.8,0674.8,31.0
2021-07-10T07:03:00Z,00000200,61000000,,,,,,,0000.08,0000.29,0000.30,17.5,24.8,01.3,00.8,0674.8,31.0
2021-07-10T07:04:00Z,00000200,41000000,0000.23,0000.30,0000.48,0000.29,0000.11,-000.09,-000.03,-000.04,0000.15,17.7,24.5,01.4,00.9,0675.7,31.0
2021-07-10T07:05:00Z,00000200,01000000,0001.16,0000.71,-000.16,0000.56,-000.02,0000.14,0000.46,0000.56,0000.61,17.8,24.5,01.5,01.0,0675.8,31.0
2021-07-10T07:06:00Z,00000200,01000000,0000.49,0000.47,-000.21,-000.09,0000.02,-000.19,0000.24,-000.08,-000.54,17.8,24.5,01.6,01.1,0675.8,31.0
2021-07-10T07:07:00Z,00000200,01000000,0000.68,0000.19,0000.16,0000.30,0000.06,0000.17,-000.08,0000.14,0000.27,17.8,24.5,01.6,01.1,0675.8,31.0
2021-07-10T07:08:00Z,00000200,01000000,0000.89,0000.44,-000.03,0000.24,0000.01,0000.10,-000.21,-000.26,-000.09,17.8,24.5,01.6,01.1,0675.8,31.0
2021-07-10T07:09:00Z,00000200,01000000,0000.38,0000.37,-000.03,0000.29,-000.18,0000.11,0000.02,0000.12,-000.13,17.8,24.5,01.6,01.0,0675.8,31.0
2021-07-10T07:10:00Z,00000200,01000000,0000.61,0000.37,-000.06,0000.87,0000.24,0000.26,-000.05,-000.25,0000.13,17.8,24.5,01.6,01.0,0675.8,31.0
2021-07-10T07:11:00Z,00000200,01000000,0000.98,0000.36,0000.12,-000.00,0000.18,-000.14,0000.07,0000.26,-000.18,17.8,24.5,01.5,01.0,0675.8,31.0
2021-07-10T07:12:00Z,00000200,01000000,0000.77,0000.08,0000.08,0000.08,-000.06,0000.03,-000.02,-000.04,0000.15,17.7,24.5,01.5,01.0,0675.9,31.0
2021-07-10T07:13:00Z,00000200,01000000,0001.39,0000.17,0000.04,0000.34,0000.12,0000.10,0000.25,0000.16,-000.30,17.7,24.5,01.6,01.0,0675.9,31.0
2021-07-10T07:14:00Z,00000200,01000000,0000.60,0000.37,0000.15,0000.37,0000.01,0000.30,-000.01,-000.09,0000.44,17.7,24.4,01.6,01.0,0675.8,31.0
2021-07-10T07:15:00Z,00000200,01000000,0000.85,0000.45,0000.08,-000.09,0000.43,0000.18,0000.01,0000.15,-000.02,17.7,24.4,01.5,01.0,0675.9,31.0
2021-07-10T07:16:00Z,00000200,01000000,-000.10,0000.11,0000.03,-000.16,-000.04,0000.05,-000.12,0000.23,0000.14,17.7,24.4,01.5,01.0,0675.8,31.0
2021-07-10T07:17:00Z,00000200,01000000,0001.04,0000.36,0000.02,0000.29,-000.13,0000.12,0000.63,-000.04,0000.12,17.6,24.4,01.6,01.0,0675.8,31.0
2021-07-10T07:18:00Z,00000200,01000000,0001.10,0000.46,0000.27,-000.21,0000.33,0000.32,-000.37,0000.37,0000.28,17.6,24.4,01.6,01.0,0675.8,31.0
2021-07-10T07:19:00Z,00000200,01000000,0000.91,0000.45,-000.04,0000.50,-000.14,-000.06,0000.46,-000.18,-000.30,17.6,24.3,01.4,00.9,0675.9,31.0
2021-07-10T07:20:00Z,00000200,01000000,0000.12,0000.37,0000.16,0000.59,-000.21,-000.08,-000.03,0000.24,0000.21,17.7,24.4,01.5,01.0,0675.9,31.0
2021-07-10T07:21:00Z,00000200,01000000,0000.99,0000.23,-000.01,-000.04,0000.18,0000.10,0000.20,-000.00,0000.11,17.8,24.4,01.5,01.0,0675.9,31.0
2021-07-10T07:22:00Z,00000200,01000000,0001.29,0000.51,0000.14,-000.13,-000.10,0000.26,0000.09,0000.05,-000.08,17.8,24.4,01.4,01.0,0675.9,31.0
2021-07-10T07:23:00Z,00000200,01000000,0000.82,0000.07,0000.18,-000.19,-000.14,0000.04,0000.09,-000.12,0000.30,17.8,24.4,01.5,01.0,0675.9,31.0
2021-07-10T07:24:00Z,00000200,01000000,0000.88,0000.52,-000.07,-000.10,-000.02,0000.12,-000.22,0000.20,-000.54,17.9,24.5,01.4,00.9,0675.9,31.0
2021-07-10T07:25:00Z,00000200,01000000,0000.53,0000.74,0000.26,0000.35,-000.03,-000.04,-000.02,0000.03,0000.22,17.8,24.4,01.5,01.0,0675.9,31.0
2021-07-10T07:26:00Z,00000200,01000000,0000.43,0000.19,0000.37,0000.21,0000.16,0000.27,0000.27,0000.17,0000.43,17.8,24.4,01.5,01.0,0675.9,31.0
2021-07-10T07:27:00Z,00000200,01000000,0000.28,0000.32,-000.02,0000.53,-000.30,0000.07,-000.01,-000.06,-000.27,17.8,24.4,01.4,00.9,0675.9,31.0
2021-07-10T07:28:00Z,00000200,01000000,-000.01,0000.18,0000.27,0000.28,-000.11,0000.19,-000.19,-000.19,0000.16,17.8,24.4,01.5,01.0,0675.9,31.0
2021-07-10T07:29:00Z,00000200,01000000,0000.38,0000.20,0000.04,0000.29,-000.01,0000.27,0000.16,0000.20,-000.10,17.7,24.4,01.5,01.0,0675.9,31.0
2021-07-10T07:30:00Z,00000200,01000000,0001.04,0000.26,-000.11,-000.15,-000.02,-000.08,0000.11,-000.10,-000.06,17.7,24.4,01.4,00.9,0675.9,31.0
2021-07-10T07:31:00Z,00000200,01000000,0001.26,0000.30,0000.16,0000.62,0000.17,0000.05,-000.08,0000.23,0000.08,17.7,24.4,01.4,00.9,0675.9,31.0
2021-07-10T07:32:00Z,00000200,01000000,0000.90,0000.50,0000.18,0000.47,-000.21,0000.21,0000.04,-000.15,-000.27,17.7,24.3,01.4,00.9,0676.0,31.0
2021-07-10T07:33:00Z,00000200,01010000,0000.73,0000.18,0000.41,0000.42,0000.09,0000.43,0000.19,0000.08,0000.40,17.7,24.3,01.3,00.9,0676.0,31.0
2021-07-10T07:34:00Z,00000200,01010000,0000.31,0000.32,-000.10,0000.12,-000.01,0000.07,0000.29,0000.27,0000.29,17.7,24.3,01.5,01.0,0676.0,31.0
2021-07-10T07:35:00Z,00000200,01000000,0000.28,0000.49,0000.28,0000.35,0000.20,0000.24,0000.12,0000.38,-000.01,17.7,24.3,01.4,00.9,0676.0,31.0
2021-07-10T07:36:00Z,00000200,01000000,0000.44,0000.36,-000.23,0000.20,0000.08,0000.09,0000.02,-000.12,0000.34,17.8,24.4,01.4,01.0,0676.0,31.0
2021-07-10T07:37:00Z,00000200,01000000,0000.81,0000.27,0000.05,0000.07,0000.17,0000.34,0000.08,0000.16,-000.01,17.8,24.4,01.5,01.0,0676.0,31.0
2021-07-10T07:38:00Z,00000200,01000000,0000.61,0000.22,0000.08,0000.14,-000.28,0000.20,0000.38,0000.18,-000.20,17.9,24.4,01.4,01.0,0676.0,31.0
2021-07-10T07:39:00Z,00000200,01000000,0000.10,0000.03,0000.05,0000.11,0000.03,-000.06,-000.30,-000.11,-000.16,17.9,24.4,01.5,01.0,0676.0,31.0
2021-07-10T07:40:00Z,00000200,01000000,0000.50,0000.34,0000.02,0000.38,-000.13,0000.37,0000.14,0000.21,0000.41,17.8,24.4,01.6,01.1,0676.0,31.0
2021-07-10T07:41:00Z,00000200,01000000,0000.63,0000.53,0000.20,0000.43,0000.40,0000.50,-000.07,-000.26,-000.05,17.8,24.4,01.6,01.1,0676.0,31.0
2021-07-10T07:42:00Z,00000200,01000000,0000.56,-000.08,-000.04,0000.27,0000.11,0000.15,0000.56,0000.18,0000.14,17.8,24.4,01.6,01.1,0675.9,31.0
2021-07-10T07:43:00Z,00000200,01000000,0000.18,0000.06,-000.06,0000.35,-000.33,0000.18,-000.06,0000.13,-000.05,17.8,24.4,01.6,01.1,0675.9,31.0
2021-07-10T07:44:00Z,00000200,01000000,0000.76,0000.27,0000.13,0000.85,-000.09,0000.16,-000.29,0000.09,0000.24,17.7,24.4,01.7,01.1,0676.0,31.0
2021-07-10T07:45:00Z,00000200,01000000,0000.88,0000.17,0000.20,-000.16,0000.04,-000.07,0000.41,0000.09,0000.02,17.7,24.4,01.6,01.1,0676.0,31.0
2021-07-10T07:46:00Z,00000200,01000000,0000.61,0000.11,0000.56,0000.36,0000.04,0000.02,0000.29,0000.17,0000.09,17.7,24.4,01.7,01.1,0676.0,31.0
2021-07-10T07:47:00Z,00000200,01000000,0000.67,0000.44,0000.22,-000.24,0000.30,0000.26,0000.18,0000.12,-000.07,17.7,24.4,01.8,01.2,0676.0,31.0
2021-07-10T07:48:00Z,00000200,01000000,0000.59,0000.08,0000.33,0000.01,-000.13,0000.27,0000.02,0000.21,0000.04,17.7,24.3,01.8,01.2,0676.0,31.0
2021-07-10T07:49:00Z,00000200,01000000,0000.46,0000.47,0000.01,0000.15,-000.01,-000.02,0000.31,0000.58,0000.52,17.7,24.3,01.8,01.2,0676.0,31.0
2021-07-10T07:50:00Z,00000200,00000000,0000.55,0000.43,0000.34,-000.17,0000.15,-000.10,-000.02,-000.10,0000.12,17.8,24.3,01.8,01.2,0676.0,31.0
2021-07-10T07:51:00Z,00000200,00000000,0000.26,0000.21,0000.02,-000.18,0000.01,-000.12,0000.23,0000.02,-000.17,17.9,24.4,02.0,01.3,0676.0,31.0
2021-07-10T07:52:00Z,00000200,00000000,0000.15,0000.15,-000.02,0000.50,0000.23,0000.13,0000.29,0000.35,0000.53,18.0,24.4,01.9,01.3,0676.0,31.0
2021-07-10T07:53:00Z,00000200,00000000,0000.52,0000.02,0000.13,0000.02,-000.18,0000.18,-000.02,-000.01,0000.10,18.0,24.5,02.0,01.3,0676.1,31.0
2021-07-10T07:54:00Z,00000200,00000000,0000.46,0000.33,0000.36,-000.06,-000.02,0000.21,0000.22,0000.18,0000.01,18.0,24.5,02.0,01.3,0676.1,31.0
2021-07-10T07:55:00Z,00000200,00000000,0000.74,0000.47,0000.40,0000.06,0000.05,0000.07,-000.12,-000.24,0000.21,18.0,24.5,02.0,01.3,0676.1,31.0
2021-07-10T07:56:00Z,00000200,00000000,0000.48,0000.09,0000.20,0000.49,-000.29,0000.27,0000.29,0000.49,0000.05,18.0,24.5,02.3,01.5,0676.1,31.0
2021-07-10T07:57:00Z,00000200,40000000,,,,,,,0000.13,-000.46,-000.74,18.0,24.5,02.2,01.5,0676.2,31.0
2021-07-10T07:58:00Z,00000200,60000000,,,,,,,-000.42,0000.06,0000.61,17.7,24.6,01.9,01.3,0675.2,31.0
2021-07-10T07:59:00Z,00000200,20000000,,,,,,,0000.01,0000.42,-000.05,17.7,24.7,01.9,01.2,0675.1,31.0
